Home   Weather   Wismar   Past weeks

Flag for Germany Past Weather in Wismar, Mecklenburg-Western Pomerania, Germany — Yesterday and Last 2 Weeks

Now
43 °F

Fog.


Feels Like: 36 °F
Forecast: 39 / 45 °F
Wind: 12 mph from Southwest

Location: Laage

Current Time: Feb 20, 2017 at 2:49:53 am

Latest Report: Feb 20, 2017 at 1:20 am


Visibility: 3 mi

Pressure: 29.95 "Hg

Humidity: 93%

Dew Point: 41 °F

Location of WismarLocation

Past Weather in Wismar — Graph

°F

Wismar Temperature Yesterday

Maximum temperature yesterday: 41 °F (at 10:20 am)
Minimum temperature yesterday: 36 °F (at 2:20 am)
Average temperature yesterday: 39 °F

High & Low Weather Summary for the Past Weeks

 TemperatureHumidityPressure
High50 °F (Feb 16, 12:56 pm)100% (Feb 5, 7:20 am)30.69 "Hg (Feb 5, 7:20 am)
Low19 °F (Feb 9, 11:20 pm)46% (Feb 15, 2:20 pm)29.65 "Hg (Feb 5, 1:20 am)
Average31 °F82%30.31 "Hg
* Reported Feb 5 1:20 am — Feb 20 1:20 am, Wismar, Weather by CustomWeather, © 2017

Note: Actual official high and low records may vary slightly from our data, if they occured in-between our weather recording intervals... More about our weather records

Advertising

Wismar Weather History for the Previous 24 Hours

Scroll right to see more
 ConditionsComfort  
Time TempWeatherWind HumidityBarometerVisibility
1:20 am
Mon, Feb 20
43 °FFog.12 mph93%29.95 "Hg3 mi
12:20 am41 °FDrizzle. Fog.10 mph100%29.98 "Hg2 mi
11:40 pm
Sun, Feb 19
41 °FDrizzle. Fog.9 mph100%29.98 "Hg2 mi
11:20 pm41 °FDrizzle. Fog.10 mph100%29.98 "Hg2 mi
10:20 pm41 °FPassing clouds.9 mph93%29.98 "Hg4 mi
9:50 pm41 °FFog.9 mph100%29.98 "Hg3 mi
9:20 pm41 °FFog.12 mph100%29.98 "Hg2 mi
9:01 pm41 °FFog.10 mph100%29.98 "Hg2 mi
8:20 pm41 °FDrizzle. Fog.8 mph93%29.98 "Hg1 mi
7:20 pm41 °FDrizzle. Fog.9 mph93%29.98 "Hg1 mi
6:36 pm39 °FDrizzle. Fog.10 mph100%29.98 "Hg1 mi
5:44 pm39 °FDrizzle. Fog.8 mph100%29.98 "Hg1 mi
5:20 pm39 °FDrizzle. Fog.8 mph100%29.98 "Hg1 mi
4:38 pm39 °FFog.10 mph100%29.95 "Hg1 mi
4:20 pm39 °FFog.9 mph100%29.95 "Hg1 mi
3:39 pm39 °FFog.13 mph100%29.95 "Hg2 mi
3:20 pm39 °FFog.12 mph93%29.95 "Hg2 mi
3:01 pm39 °FFog.12 mph93%29.95 "Hg2 mi
2:20 pm39 °FDrizzle. Fog.9 mph93%29.98 "Hg2 mi
1:20 pm39 °FRain. Fog.9 mph93%29.98 "Hg2 mi
12:20 pm39 °FRain. Fog.10 mph93%30.01 "Hg2 mi
12:05 pm39 °FRain. Fog.10 mph87%30.01 "Hg3 mi
11:40 am39 °FLight rain. Partly sunny.12 mph87%30.01 "Hg4 mi
11:28 am41 °FLight rain. Partly sunny.12 mph81%30.01 "Hg4 mi
10:44 am41 °FPartly sunny.12 mph76%30.01 "HgN/A
10:20 am41 °FBroken clouds.13 mph76%30.01 "Hg6 mi
9:20 am37 °FScattered clouds.12 mph81%30.04 "HgN/A
8:20 am37 °FPartly sunny.10 mph81%30.04 "Hg5 mi
7:20 am37 °FOvercast.9 mph81%30.04 "Hg6 mi
6:20 am37 °FPassing clouds.12 mph81%30.07 "HgN/A
5:20 am37 °FPartly cloudy.10 mph81%30.07 "HgN/A
4:20 am37 °FPassing clouds.12 mph87%30.09 "HgN/A
3:20 am37 °FPassing clouds.8 mph87%30.12 "HgN/A
2:20 am36 °FPartly cloudy.6 mph93%30.12 "HgN/A
Weather by CustomWeather, © 2017

See weather overviewHow to use our weather pages